Date_and_time,latitude,longitude,wind_speed,RelWindDirFrom,WindDirFrom,air_pressure,air_temperature,relative_humidity,Temp,platform_speed_wrt_ground,air_pressure_at_mean_sea_level,platform_orientation
2019-01-03 23:50,50.6304383333333,-96.9807783333333,8.6,10.8,217,970.27,2.3,92,0.68,0.0,997.32,360.0
2019-01-04 00:00,50.63044,-96.9807766666667,9.0,12.0,216,970.37,2.2,93,0.69,0.0,997.44,90.0
2019-01-04 00:10,50.630445,-96.9807616666667,8.6,11.2,216,970.45,2.1,93,0.70,0.0,997.55,90.0
2019-01-04 00:20,50.630455,-96.980755,7.5,9.6,217,970.48,2.0,94,0.69,0.0,997.58,90.0
2019-01-04 00:30,50.630455,-96.9807616666667,7.1,9.0,221,970.63,2.0,93,0.68,0.0,997.75,90.0
2019-01-04 00:40,50.6304383333333,-96.9807583333333,8.7,12.1,222,970.80,2.1,92,0.68,0.0,997.93,90.0
2019-01-04 00:50,50.6304466666667,-96.98077,8.3,11.5,223,970.91,2.1,92,0.68,0.0,998.04,90.0
2019-01-04 01:00,50.6304366666667,-96.9807666666667,7.8,10.8,228,971.05,2.0,92,0.68,0.0,998.20,111.5
2019-01-04 01:10,50.6304416666667,-96.9807666666667,7.8,10.5,225,971.13,1.9,92,0.68,0.0,998.30,111.5
2019-01-04 01:20,50.6304433333333,-96.9807683333333,8.1,11.4,230,971.34,1.8,92,0.69,0.0,998.52,111.5
2019-01-04 01:30,50.630445,-96.98077,8.0,11.1,232,971.47,1.8,92,0.70,0.0,998.66,111.5
2019-01-04 01:40,50.6304433333333,-96.9807683333333,6.7,10.3,233,971.65,1.7,92,0.70,0.0,998.85,111.5
2019-01-04 01:50,50.6304466666667,-96.98077,7.0,10.3,229,971.62,1.6,92,0.70,0.0,998.84,111.5
2019-01-04 02:00,50.6304433333333,-96.9807683333333,6.5,9.0,232,971.65,1.4,93,0.69,0.0,998.88,18.9
2019-01-04 02:10,50.6304416666667,-96.9807633333333,6.2,9.3,227,971.69,1.2,94,0.69,0.0,998.93,18.9
2019-01-04 02:20,50.6304416666667,-96.9807666666667,6.2,9.0,233,971.76,1.1,94,0.69,0.0,999.02,18.9
2019-01-04 02:30,50.6304416666667,-96.9807683333333,6.8,9.0,235,971.96,0.9,95,0.69,0.0,999.22,18.9
2019-01-04 02:40,50.6304416666667,-96.9807683333333,5.5,7.7,233,972.15,0.6,96,0.70,0.0,999.44,18.9
2019-01-04 02:50,50.6304433333333,-96.98077,5.4,7.6,229,972.29,0.3,98,0.70,0.0,999.60,18.9
2019-01-04 03:00,50.6304233333333,-96.980715,5.8,7.1,228,972.29,0.1,99,0.70,0.0,999.62,114.7
2019-01-04 03:10,50.6304416666667,-96.9807633333333,5.5,7.6,230,972.48,-0.0,99,0.70,0.0,999.82,114.7
2019-01-04 03:20,50.6304416666667,-96.9807633333333,5.6,6.9,228,972.54,-0.2,99,0.70,0.0,999.89,114.7
2019-01-04 03:30,50.630425,-96.9807133333333,5.4,6.9,223,972.67,-0.4,99,0.70,0.0,1000.04,114.7
2019-01-04 03:40,50.6304416666667,-96.98076,5.8,7.8,219,972.72,-0.6,99,0.70,0.0,1000.11,114.7
2019-01-04 03:50,50.63044,-96.9807633333333,5.0,6.3,222,972.86,-0.8,99,0.70,0.0,1000.27,114.7
2019-01-04 04:00,50.6304383333333,-96.980765,4.9,6.6,232,973.00,-0.9,99,0.70,0.0,1000.42,360.0
2019-01-04 04:10,50.630425,-96.980775,5.4,6.7,232,973.02,-1.0,99,0.70,0.0,1000.46,360.0
2019-01-04 04:20,50.6304333333333,-96.9807683333333,5.4,6.6,234,973.08,-1.1,99,0.70,0.0,1000.54,360.0
2019-01-04 04:30,50.6304383333333,-96.9807716666667,5.4,6.7,233,973.26,-1.2,99,0.69,0.0,1000.74,360.0
2019-01-04 04:40,50.6304383333333,-96.9807683333333,5.4,6.7,231,973.32,-1.3,100,0.70,0.0,1000.82,360.0
2019-01-04 04:50,50.63044,-96.9807666666667,5.0,6.1,231,973.26,-1.4,100,0.70,0.0,1000.78,360.0
2019-01-04 05:00,50.63044,-96.980765,5.6,7.6,235,973.36,-1.4,100,0.70,0.0,1000.89,90.0
2019-01-04 05:10,50.6304416666667,-96.9807666666667,6.1,8.0,236,973.43,-1.3,100,0.70,0.0,1000.97,90.0
2019-01-04 05:20,50.6304416666667,-96.9807666666667,5.5,6.5,239,973.42,-1.4,100,0.70,0.0,1000.96,90.0
2019-01-04 05:30,50.6304516666667,-96.98081,5.2,6.6,236,973.39,-1.5,100,0.70,0.0,1000.96,90.0
2019-01-04 05:40,50.6304316666667,-96.980775,5.7,6.7,232,973.38,-1.6,100,0.70,0.0,1000.96,90.0
2019-01-04 05:50,50.6304433333333,-96.98078,6.5,8.1,228,973.50,-2.0,100,0.71,0.0,1001.10,90.0
2019-01-04 06:00,50.6304466666667,-96.9807766666667,6.4,7.8,226,973.56,-2.0,100,0.70,0.0,1001.17,300.8
2019-01-04 06:10,50.6304433333333,-96.9807666666667,6.5,8.2,226,973.64,-2.0,100,0.70,0.0,1001.26,300.8
2019-01-04 06:20,50.630445,-96.980765,6.1,7.4,228,973.73,-2.0,100,0.70,0.0,1001.35,300.8
2019-01-04 06:30,50.630445,-96.9807666666667,6.5,7.8,226,973.84,-2.1,100,0.69,0.0,1001.48,300.8
2019-01-04 06:40,50.6304466666667,-96.980765,6.4,8.6,228,973.90,-2.2,100,0.69,0.0,1001.56,300.8
2019-01-04 06:50,50.630445,-96.980765,6.2,8.2,234,973.94,-2.1,100,0.69,0.0,1001.59,300.8
2019-01-04 07:00,50.6304533333333,-96.98075,6.8,8.3,231,974.01,-2.3,100,0.68,0.0,1001.67,48.3
2019-01-04 07:10,50.6304316666667,-96.9807766666667,6.9,8.5,238,973.96,-2.2,100,0.68,0.0,1001.61,48.3
2019-01-04 07:20,50.6304416666667,-96.9807933333333,6.8,8.2,237,973.95,-2.2,100,0.69,0.0,1001.61,48.3
2019-01-04 07:30,50.6304366666667,-96.9807683333333,6.7,8.6,233,974.04,-2.4,100,0.70,0.0,1001.72,48.3
2019-01-04 07:40,50.6304366666667,-96.9807666666667,6.9,8.6,233,974.12,-2.6,100,0.70,0.0,1001.82,48.3
2019-01-04 07:50,50.63044,-96.9807683333333,6.7,9.0,238,974.22,-2.6,100,0.69,0.0,1001.94,48.3
2019-01-04 08:00,50.6304383333333,-96.98077,6.4,8.1,241,974.14,-2.5,100,0.69,0.0,1001.85,0.0
2019-01-04 08:10,50.6304316666667,-96.9807766666667,6.8,8.1,243,974.30,-2.6,100,0.69,0.0,1002.02,0.0
2019-01-04 08:20,50.6304316666667,-96.980775,6.2,7.5,239,974.37,-2.8,100,0.70,0.0,1002.10,0.0
2019-01-04 08:30,50.63044,-96.980775,6.3,7.4,238,974.56,-2.9,100,0.70,0.0,1002.31,0.0
2019-01-04 08:40,50.63044,-96.980775,6.2,8.1,239,974.78,-2.8,100,0.70,0.0,1002.52,0.0
2019-01-04 08:50,50.6304666666667,-96.9807833333333,5.8,7.3,233,974.97,-2.9,100,0.70,0.0,1002.74,0.0
2019-01-04 09:00,50.630455,-96.9807783333333,6.2,8.0,234,975.21,-2.8,100,0.68,0.0,1002.98,299.2
2019-01-04 09:10,50.63042,-96.98075,6.5,8.1,237,975.17,-2.5,100,0.68,0.0,1002.91,299.2
2019-01-04 09:20,50.63043,-96.98077,7.9,10.8,233,975.46,-2.3,100,0.68,0.0,1003.22,299.2
2019-01-04 09:30,50.6304416666667,-96.9807766666667,7.6,10.8,239,975.51,-2.1,99,0.68,0.0,1003.26,299.2
2019-01-04 09:40,50.6304466666667,-96.9807733333333,7.3,9.5,238,975.36,-2.2,99,0.68,0.0,1003.11,299.2
2019-01-04 09:50,50.6304466666667,-96.9807683333333,7.5,10.1,244,975.26,-2.1,99,0.68,0.0,1003.01,299.2
2019-01-04 10:00,50.63046,-96.9807966666667,8.2,11.1,242,975.32,-1.9,99,0.68,0.0,1003.06,280.2
2019-01-04 10:10,50.6304383333333,-96.9807666666667,7.4,9.8,247,975.33,-1.9,99,0.69,0.0,1003.08,280.2
2019-01-04 10:20,50.6304433333333,-96.9807783333333,6.5,8.6,258,975.56,-1.9,99,0.69,0.0,1003.33,280.2
2019-01-04 10:30,50.6304416666667,-96.9807716666667,6.1,7.9,248,975.27,-1.9,99,0.68,0.0,1003.03,280.2
2019-01-04 10:40,50.63044,-96.9807733333333,5.8,7.9,247,975.22,-1.9,99,0.68,0.0,1002.97,280.2
2019-01-04 10:50,50.63044,-96.9807733333333,6.0,8.2,251,975.24,-1.7,99,0.68,0.0,1002.98,280.2
2019-01-04 11:00,50.6304266666667,-96.9807833333333,6.0,7.9,257,975.34,-1.7,99,0.68,0.0,1003.06,211.1
2019-01-04 11:10,50.6304466666667,-96.9807733333333,6.3,9.1,257,975.25,-1.7,99,0.68,0.0,1002.97,211.1
2019-01-04 11:20,50.6304366666667,-96.98077,6.0,7.8,254,975.18,-1.7,99,0.68,0.0,1002.88,211.1
2019-01-04 11:30,50.6304383333333,-96.9807733333333,6.0,8.3,253,975.05,-1.6,99,0.68,0.0,1002.75,211.1
2019-01-04 11:40,50.6304416666667,-96.9807733333333,6.3,8.6,247,974.97,-1.5,99,0.68,0.0,1002.66,211.1
2019-01-04 11:50,50.6304333333333,-96.9807883333333,5.8,7.5,247,974.85,-1.6,99,0.69,0.0,1002.53,211.1
2019-01-04 12:00,50.6304416666667,-96.98078,6.0,8.0,241,974.79,-1.6,99,0.69,0.0,1002.46,360.0
2019-01-04 12:10,50.6304366666667,-96.98078,6.9,9.0,225,974.63,-1.8,99,0.69,0.0,1002.32,360.0
2019-01-04 12:20,50.6304366666667,-96.98078,6.8,8.6,229,974.55,-1.9,99,0.70,0.0,1002.23,360.0
2019-01-04 12:30,50.6304366666667,-96.9807783333333,6.7,9.1,229,974.60,-1.9,99,0.70,0.0,1002.29,360.0
2019-01-04 12:40,50.63045,-96.98076,6.0,8.1,245,974.73,-1.8,99,0.70,0.0,1002.41,360.0
2019-01-04 12:50,50.63045,-96.9807766666667,6.3,8.0,254,974.97,-1.7,98,0.69,0.0,1002.65,360.0
2019-01-04 13:00,50.63045,-96.9807766666667,6.1,7.7,252,974.94,-1.8,98,0.69,0.0,1002.62,106.8
2019-01-04 13:10,50.6304483333333,-96.980775,5.9,7.7,244,974.95,-1.9,99,0.70,0.0,1002.63,106.8
2019-01-04 13:20,50.6304483333333,-96.980775,5.8,7.5,257,975.19,-1.7,97,0.70,0.0,1002.87,106.8
2019-01-04 13:30,50.6304466666667,-96.980775,5.1,6.5,271,975.18,-1.6,97,0.69,0.0,1002.85,106.8
2019-01-04 13:40,50.630445,-96.9807733333333,3.0,5.9,272,975.15,-1.6,97,0.68,0.0,1002.81,106.8
2019-01-04 13:50,50.6304216666667,-96.9807666666667,1.1,3.9,150,975.40,-1.6,98,0.68,0.0,1003.08,106.8
2019-01-04 14:00,50.63044,-96.980775,4.5,6.0,185,975.35,-2.1,99,0.68,0.0,1003.07,3.2
2019-01-04 14:10,50.630445,-96.9808133333333,4.6,5.5,189,975.53,-2.0,99,0.68,0.0,1003.24,3.2
2019-01-04 14:20,50.630445,-96.980785,4.1,4.6,206,975.73,-2.1,99,0.68,0.0,1003.45,3.2
2019-01-04 14:30,50.6304333333333,-96.9807733333333,4.3,5.4,191,975.75,-2.1,99,0.69,0.0,1003.47,3.2
2019-01-04 14:40,50.63044,-96.9807766666667,3.3,4.0,197,975.84,-2.0,99,0.68,0.0,1003.56,3.2
2019-01-04 14:50,50.63044,-96.9807766666667,3.6,4.5,197,975.93,-2.0,99,0.68,0.0,1003.65,3.2
2019-01-04 15:00,50.63044,-96.9807766666667,4.7,6.1,205,975.85,-1.8,98,0.68,0.0,1003.57,90.0
2019-01-04 15:10,50.6304416666667,-96.9807766666667,5.8,6.7,194,975.74,-2.1,99,0.68,0.0,1003.46,90.0
2019-01-04 15:20,50.6304416666667,-96.9807766666667,4.6,6.1,203,975.71,-2.1,99,0.68,0.0,1003.43,90.0
2019-01-04 15:30,50.63045,-96.980775,3.7,4.9,213,975.75,-1.9,97,0.68,0.0,1003.45,90.0
2019-01-04 15:40,50.6304466666667,-96.980775,3.6,5.0,230,975.87,-1.7,96,0.68,0.0,1003.57,90.0
2019-01-04 15:50,50.6304416666667,-96.980775,3.3,5.4,235,976.08,-1.4,93,0.68,0.0,1003.79,90.0
2019-01-04 16:00,50.63044,-96.9807733333333,4.4,5.6,230,976.13,-1.4,92,0.68,0.0,1003.84,360.0
2019-01-04 16:10,50.6304433333333,-96.9807733333333,5.8,7.1,218,976.03,-1.4,91,0.68,0.0,1003.74,360.0
2019-01-04 16:20,50.630445,-96.980775,5.3,6.5,225,976.15,-1.4,91,0.68,0.0,1003.86,360.0
2019-01-04 16:30,50.630445,-96.980775,5.2,6.4,222,976.27,-1.5,91,0.68,0.0,1003.98,360.0
2019-01-04 16:40,50.630445,-96.9807733333333,5.5,7.3,218,976.24,-1.6,91,0.68,0.0,1003.95,360.0
2019-01-04 16:50,50.630445,-96.980775,4.7,5.9,230,976.43,-1.2,88,0.68,0.0,1004.13,360.0
2019-01-04 17:00,50.630445,-96.980775,4.8,6.7,241,976.51,-0.5,83,0.67,0.0,1004.19,90.0
2019-01-04 17:10,50.6304466666667,-96.980775,4.5,6.7,258,976.41,-0.1,81,0.67,0.0,1004.06,90.0
2019-01-04 17:20,50.6304516666667,-96.9807666666667,3.6,5.7,255,976.32,0.1,78,0.68,0.0,1003.94,90.0
2019-01-04 17:30,50.630455,-96.9807766666667,3.2,5.1,255,976.17,0.5,75,0.68,0.0,1003.76,90.0
2019-01-04 17:40,50.6304516666667,-96.9807666666667,3.1,4.3,231,976.01,0.8,72,0.67,0.0,1003.57,90.0
2019-01-04 17:50,50.63045,-96.9807666666667,3.4,4.8,228,975.87,1.0,71,0.67,0.0,1003.41,90.0
2019-01-04 18:00,50.6304416666667,-96.98076,2.9,4.4,225,975.70,1.2,69,0.67,0.0,1003.23,90.0
2019-01-04 18:10,50.6304466666667,-96.9807666666667,2.3,3.4,209,975.56,1.5,67,0.67,0.0,1003.07,90.0
2019-01-04 18:20,50.6304483333333,-96.9807683333333,3.6,4.4,208,975.50,1.4,68,0.66,0.0,1003.02,90.0
2019-01-04 18:30,50.63045,-96.9807666666667,2.4,3.9,244,975.52,1.8,64,0.67,0.0,1003.02,90.0
2019-01-04 18:40,50.6304466666667,-96.9807666666667,2.2,3.8,257,975.47,2.3,61,0.67,0.0,1002.93,90.0
2019-01-04 18:50,50.6304466666667,-96.9807666666667,2.3,3.6,236,975.51,2.6,59,0.66,0.0,1002.92,90.0
2019-01-04 19:00,50.6304466666667,-96.9807666666667,2.6,3.7,217,975.52,3.0,57,0.66,0.0,1002.89,48.3
2019-01-04 19:10,50.6304466666667,-96.9807683333333,1.6,3.2,212,975.50,3.1,56,0.67,0.0,1002.85,48.3
2019-01-04 19:20,50.6304483333333,-96.9807683333333,0.2,1.5,182,975.43,4.2,54,0.67,0.0,1002.71,48.3
2019-01-04 19:30,50.6304483333333,-96.9807683333333,0.9,2.1,67,975.45,5.4,53,0.66,0.0,1002.65,48.3
2019-01-04 19:40,50.6304483333333,-96.9807683333333,1.3,1.9,55,975.56,3.6,60,0.67,0.0,1002.84,48.3
2019-01-04 19:50,50.6304466666667,-96.98077,1.4,2.4,80,975.67,3.6,57,0.67,0.0,1002.94,48.3
2019-01-04 20:00,50.6304466666667,-96.98077,2.1,2.7,68,975.73,3.9,59,0.66,0.0,1002.98,12.6
2019-01-04 20:10,50.6304466666667,-96.98077,2.0,2.4,69,975.94,2.9,62,0.67,0.0,1003.25,12.6
2019-01-04 20:20,50.6304466666667,-96.98077,2.4,3.0,67,976.11,3.0,62,0.67,0.0,1003.40,12.6
2019-01-04 20:30,50.630445,-96.9807716666667,3.4,4.8,62,975.96,0.9,72,0.67,0.0,1003.32,12.6
2019-01-04 20:40,50.6304466666667,-96.9807716666667,3.2,4.7,61,975.80,-0.1,77,0.67,0.0,1003.19,12.6
2019-01-04 20:50,50.6304466666667,-96.9807716666667,3.9,5.0,54,975.76,-0.1,77,0.67,0.0,1003.14,12.6
2019-01-04 21:00,50.630445,-96.98077,2.9,4.2,73,975.89,1.0,72,0.67,0.0,1003.21,270.0
2019-01-04 21:10,50.630445,-96.9807716666667,1.9,3.1,94,976.05,2.3,68,0.67,0.0,1003.25,270.0
2019-01-04 21:20,50.630445,-96.9807716666667,1.3,2.7,97,976.22,2.1,69,0.67,0.0,1003.38,270.0
2019-01-04 21:30,50.630445,-96.9807716666667,1.3,2.5,81,976.46,1.5,72,0.67,0.0,1003.74,270.0
2019-01-04 21:40,50.630445,-96.9807733333333,0.9,3.4,55,976.65,0.5,75,0.67,0.0,1003.98,270.0
2019-01-04 21:50,50.630445,-96.9807733333333,2.7,3.6,31,976.55,-1.9,93,0.67,0.0,1003.99,270.0
2019-01-04 22:00,50.630445,-96.9807733333333,0.9,1.9,60,976.74,-2.3,97,0.67,0.0,1004.26,192.6
2019-01-04 22:10,50.630445,-96.9807733333333,0.8,1.8,88,976.66,-1.8,93,0.68,0.0,1004.14,192.6
2019-01-04 22:20,50.630445,-96.9807733333333,2.0,2.9,64,976.47,-2.2,96,0.68,0.0,1004.07,192.6
2019-01-04 22:30,50.630445,-96.9807733333333,0.6,1.3,163,976.30,-3.2,99,0.68,0.0,1004.00,192.6
2019-01-04 22:40,50.630445,-96.9807716666667,2.1,3.2,82,976.10,-2.9,99,0.68,0.0,1003.79,192.6
2019-01-04 22:50,50.6304416666667,-96.9807616666667,1.9,2.9,23,976.17,-3.1,99,0.69,0.0,1003.81,192.6
2019-01-04 23:00,50.6304466666667,-96.9807716666667,2.1,3.0,20,976.28,-3.2,99,0.69,0.0,1003.86,270.0
2019-01-04 23:10,50.6304583333333,-96.980805,2.2,2.8,5,976.37,-3.1,99,0.70,0.0,1003.96,270.0
2019-01-04 23:20,50.63045,-96.9807733333333,2.1,3.2,43,976.29,-2.8,99,0.70,0.0,1003.89,270.0
2019-01-04 23:30,50.6304466666667,-96.9807683333333,2.2,3.4,42,976.10,-2.8,99,0.68,0.0,1003.74,270.0
